Tracking 20092 objects as of 14-Dec-2019
HD Live streaming from Space Station
objects crossing your sky now

COSMOS 2251 DEB

Track COSMOS 2251 DEB now!
10-day predictions


NORAD ID: 34331
Int'l Code: 1993-036PD
Perigee: 699.5 km
Apogee: 764.6 km
Inclination: 74.0 °
Period: 99.3 minutes
Semi major axis: 7103 km
RCS: 0.0304 m2 (small)
Launch date: June 16, 1993
Source: Commonwealth of Independent States (former USSR) (CIS)
Launch site: PLESETSK MISSILE AND SPACE COMPLEX (PKMTR)

Note: This is SATELLITE DEBRIS
aabbcc
Your satellite tracking list
Your tracking list is empty




NASA's NSSDC Master Catalog

Two Line Element Set (TLE):
1 34331U 93036PD  19347.61663756 +.00001737 +00000-0 +44751-3 0  9991
2 34331 074.0306 272.5996 0045794 045.0873 315.3989 14.50232407568591
Source of the keplerian elements: AFSPC